Back to Top

Language: 

My Weather Underground Personal Weather Station Historical Data with Graphs...

Delerius Weather Station Historical Data
Daily Summary for January 27, 2017 Units:  Metric    English   Both
« Previous Day
Next Day »
Daily Weekly Monthly Yearly Custom
  High: Low: Average:
Temperature: 2.6 °C -2.6 °C -0.1 °C
Dew Point: 1.9 °C -3.6 °C -0.8 °C
Humidity: 97 % 91 % 95 %
Wind Speed: 12.9 km/h 0 km/h 6.6 km/h
Wind Gust: -1607.7 km/h - -
Wind:- - SE
Pressure: 1014.8 hPa 1007.7 hPa -
Precipitation: 0.76 mm    
Historical Graphs
 
 
Tabular Data for January 27, 2017
Time Temperature Dew Point Pressure Wind Wind Speed Wind Gust Humidity Rainfall Rate (Hourly) solar Conditions
00:01 -1.9 °C -3.2 °C 1014.8 hPa SE 12.9 km/h -1607.7 km/h 91 % 0 mm 0 W/m2
00:06 -1.9 °C -3.2 °C 1014.8 hPa SE 12.9 km/h -1607.7 km/h 91 % 0 mm 0 W/m2
00:11 -1.9 °C -3.2 °C 1014.8 hPa SE 12.9 km/h -1607.7 km/h 91 % 0 mm 0 W/m2
00:16 -1.9 °C -3.2 °C 1014.8 hPa SE 12.9 km/h -1607.7 km/h 91 % 0 mm 0 W/m2
00:21 -1.9 °C -3.2 °C 1014.8 hPa SE 12.9 km/h -1607.7 km/h 91 % 0 mm 0 W/m2
00:26 -2 °C -3.3 °C 1014.8 hPa SE 12.9 km/h -1607.7 km/h 91 % 0 mm 0 W/m2
00:31 -2 °C -3.3 °C 1014.8 hPa SE 12.9 km/h -1607.7 km/h 91 % 0 mm 0 W/m2
00:36 -2 °C -3.3 °C 1014.8 hPa SE 12.9 km/h -1607.7 km/h 91 % 0 mm 0 W/m2
00:41 -2.1 °C -3.3 °C 1014.4 hPa SE 12.9 km/h -1607.7 km/h 91 % 0 mm 0 W/m2
00:46 -2.1 °C -3.3 °C 1014.4 hPa SE 12.9 km/h -1607.7 km/h 91 % 0 mm 0 W/m2
00:51 -2.1 °C -3.3 °C 1014.4 hPa SE 12.9 km/h -1607.7 km/h 91 % 0 mm 0 W/m2
00:56 -2.1 °C -3.4 °C 1014.1 hPa SE 11.3 km/h -1607.7 km/h 91 % 0 mm 0 W/m2
01:01 -2.1 °C -3.4 °C 1014.1 hPa SE 11.3 km/h -1607.7 km/h 91 % 0 mm 0 W/m2
01:06 -2.1 °C -3.4 °C 1014.1 hPa SE 11.3 km/h -1607.7 km/h 91 % 0 mm 0 W/m2
01:11 -2.2 °C -3.3 °C 1014.1 hPa SSE 6.4 km/h -1607.7 km/h 92 % 0 mm 0 W/m2
01:16 -2.2 °C -3.3 °C 1014.1 hPa SSE 6.4 km/h -1607.7 km/h 92 % 0 mm 0 W/m2
01:21 -2.2 °C -3.3 °C 1014.1 hPa SSE 6.4 km/h -1607.7 km/h 92 % 0 mm 0 W/m2
01:26 -2.2 °C -3.3 °C 1013.8 hPa SE 4.8 km/h -1607.7 km/h 92 % 0 mm 0 W/m2
01:31 -2.2 °C -3.3 °C 1013.8 hPa SE 4.8 km/h -1607.7 km/h 92 % 0 mm 0 W/m2
01:36 -2.2 °C -3.3 °C 1013.8 hPa SE 4.8 km/h -1607.7 km/h 92 % 0 mm 0 W/m2
01:41 -2.3 °C -3.4 °C 1013.4 hPa SE 4.8 km/h -1607.7 km/h 92 % 0 mm 0 W/m2
01:46 -2.3 °C -3.4 °C 1013.4 hPa SE 4.8 km/h -1607.7 km/h 92 % 0 mm 0 W/m2
01:51 -2.3 °C -3.4 °C 1013.4 hPa SE 4.8 km/h -1607.7 km/h 92 % 0 mm 0 W/m2
01:56 -2.4 °C -3.6 °C 1013.1 hPa East 3.2 km/h -1607.7 km/h 92 % 0 mm 0 W/m2
02:01 -2.4 °C -3.6 °C 1013.1 hPa East 3.2 km/h -1607.7 km/h 92 % 0 mm 0 W/m2
02:06 -2.4 °C -3.6 °C 1013.1 hPa East 3.2 km/h -1607.7 km/h 92 % 0 mm 0 W/m2
02:11 -2.5 °C -3.5 °C 1013.1 hPa ESE 4.8 km/h -1607.7 km/h 93 % 0 mm 0 W/m2
02:16 -2.5 °C -3.5 °C 1013.1 hPa ESE 4.8 km/h -1607.7 km/h 93 % 0 mm 0 W/m2
02:21 -2.5 °C -3.5 °C 1013.1 hPa ESE 4.8 km/h -1607.7 km/h 93 % 0 mm 0 W/m2
02:26 -2.5 °C -3.5 °C 1012.8 hPa ESE 3.2 km/h -1607.7 km/h 93 % 0 mm 0 W/m2
02:31 -2.5 °C -3.5 °C 1012.8 hPa ESE 3.2 km/h -1607.7 km/h 93 % 0 mm 0 W/m2
02:36 -2.5 °C -3.5 °C 1012.8 hPa ESE 3.2 km/h -1607.7 km/h 93 % 0 mm 0 W/m2
02:41 -2.5 °C -3.5 °C 1012.4 hPa ESE 1.6 km/h -1607.7 km/h 93 % 0 mm 0 W/m2
02:46 -2.5 °C -3.5 °C 1012.4 hPa ESE 1.6 km/h -1607.7 km/h 93 % 0 mm 0 W/m2
02:51 -2.5 °C -3.5 °C 1012.4 hPa ESE 1.6 km/h -1607.7 km/h 93 % 0 mm 0 W/m2
02:56 -2.5 °C -3.5 °C 1012.4 hPa ESE 1.6 km/h -1607.7 km/h 93 % 0 mm 0 W/m2
03:01 -2.5 °C -3.5 °C 1012.4 hPa ESE 1.6 km/h -1607.7 km/h 93 % 0 mm 0 W/m2
03:06 -2.5 °C -3.5 °C 1012.4 hPa ESE 1.6 km/h -1607.7 km/h 93 % 0 mm 0 W/m2
03:11 -2.5 °C -3.5 °C 1012.4 hPa ESE 4.8 km/h -1607.7 km/h 93 % 0 mm 0 W/m2
03:16 -2.5 °C -3.5 °C 1012.4 hPa ESE 4.8 km/h -1607.7 km/h 93 % 0 mm 0 W/m2
03:21 -2.5 °C -3.5 °C 1012.4 hPa ESE 4.8 km/h -1607.7 km/h 93 % 0 mm 0 W/m2
03:26 -2.5 °C -3.3 °C 1012.1 hPa ESE 6.4 km/h -1607.7 km/h 94 % 0 mm 0 W/m2
03:31 -2.5 °C -3.3 °C 1012.1 hPa ESE 6.4 km/h -1607.7 km/h 94 % 0 mm 0 W/m2
03:36 -2.5 °C -3.3 °C 1012.1 hPa ESE 6.4 km/h -1607.7 km/h 94 % 0 mm 0 W/m2
03:41 -2.5 °C -3.3 °C 1012.1 hPa ESE 8 km/h -1607.7 km/h 94 % 0 mm 0 W/m2
03:46 -2.5 °C -3.3 °C 1012.1 hPa ESE 8 km/h -1607.7 km/h 94 % 0 mm 0 W/m2
03:51 -2.5 °C -3.3 °C 1012.1 hPa ESE 8 km/h -1607.7 km/h 94 % 0 mm 0 W/m2
03:56 -2.4 °C -3.3 °C 1012.1 hPa ESE 8 km/h -1607.7 km/h 94 % 0 mm 0 W/m2
04:01 -2.4 °C -3.3 °C 1012.1 hPa ESE 8 km/h -1607.7 km/h 94 % 0 mm 0 W/m2
04:06 -2.4 °C -3.3 °C 1012.1 hPa ESE 8 km/h -1607.7 km/h 94 % 0 mm 0 W/m2
04:11 -2.4 °C -3.1 °C 1012.1 hPa ESE 6.4 km/h -1607.7 km/h 95 % 0 mm 0 W/m2
04:16 -2.4 °C -3.1 °C 1012.1 hPa ESE 6.4 km/h -1607.7 km/h 95 % 0 mm 0 W/m2
04:21 -2.4 °C -3.1 °C 1012.1 hPa ESE 6.4 km/h -1607.7 km/h 95 % 0 mm 0 W/m2
04:26 -2.4 °C -3.1 °C 1012.1 hPa ESE 6.4 km/h -1607.7 km/h 95 % 0 mm 0 W/m2
04:31 -2.4 °C -3.1 °C 1012.1 hPa ESE 6.4 km/h -1607.7 km/h 95 % 0 mm 0 W/m2
04:36 -2.4 °C -3.1 °C 1012.1 hPa ESE 6.4 km/h -1607.7 km/h 95 % 0 mm 0 W/m2
04:41 -2.4 °C -3.1 °C 1011.7 hPa SE 6.4 km/h -1607.7 km/h 95 % 0 mm 0 W/m2
04:46 -2.4 °C -3.1 °C 1011.7 hPa SE 6.4 km/h -1607.7 km/h 95 % 0 mm 0 W/m2
04:51 -2.4 °C -3.1 °C 1011.7 hPa SE 6.4 km/h -1607.7 km/h 95 % 0 mm 0 W/m2
04:56 -2.5 °C -3.2 °C 1011.7 hPa SE 3.2 km/h -1607.7 km/h 95 % 0 mm 0 W/m2
05:01 -2.5 °C -3.2 °C 1011.7 hPa SE 3.2 km/h -1607.7 km/h 95 % 0 mm 0 W/m2
05:06 -2.5 °C -3.2 °C 1011.7 hPa SE 3.2 km/h -1607.7 km/h 95 % 0 mm 0 W/m2
05:11 -2.5 °C -3.2 °C 1011.4 hPa SE 3.2 km/h -1607.7 km/h 95 % 0 mm 0 W/m2
05:16 -2.5 °C -3.2 °C 1011.4 hPa SE 3.2 km/h -1607.7 km/h 95 % 0 mm 0 W/m2
05:21 -2.5 °C -3.2 °C 1011.4 hPa SE 3.2 km/h -1607.7 km/h 95 % 0 mm 0 W/m2
05:26 -2.5 °C -3.2 °C 1011.1 hPa SE 6.4 km/h -1607.7 km/h 95 % 0 mm 0 W/m2
05:31 -2.5 °C -3.2 °C 1011.1 hPa SE 6.4 km/h -1607.7 km/h 95 % 0 mm 0 W/m2
05:36 -2.5 °C -3.2 °C 1011.1 hPa SE 6.4 km/h -1607.7 km/h 95 % 0 mm 0 W/m2
05:41 -2.6 °C -3.2 °C 1010.7 hPa SE 4.8 km/h -1607.7 km/h 95 % 0 mm 0 W/m2
05:46 -2.6 °C -3.2 °C 1010.7 hPa SE 4.8 km/h -1607.7 km/h 95 % 0 mm 0 W/m2
05:51 -2.6 °C -3.2 °C 1010.7 hPa SE 4.8 km/h -1607.7 km/h 95 % 0 mm 0 W/m2
05:56 -2.5 °C -3.1 °C 1010.7 hPa South 3.2 km/h -1607.7 km/h 96 % 0 mm 0 W/m2
06:01 -2.5 °C -3.1 °C 1010.7 hPa South 3.2 km/h -1607.7 km/h 96 % 0 mm 0 W/m2
06:06 -2.5 °C -3.1 °C 1010.7 hPa South 3.2 km/h -1607.7 km/h 96 % 0 mm 0 W/m2
06:11 -2.4 °C -2.9 °C 1010.7 hPa South 1.6 km/h -1607.7 km/h 96 % 0 mm 0 W/m2
06:16 -2.4 °C -2.9 °C 1010.7 hPa South 1.6 km/h -1607.7 km/h 96 % 0 mm 0 W/m2
06:21 -2.4 °C -2.9 °C 1010.7 hPa South 1.6 km/h -1607.7 km/h 96 % 0 mm 0 W/m2
06:26 -2.3 °C -2.9 °C 1010.7 hPa ESE 1.6 km/h -1607.7 km/h 96 % 0 mm 0 W/m2
06:31 -2.3 °C -2.9 °C 1010.7 hPa ESE 1.6 km/h -1607.7 km/h 96 % 0 mm 0 W/m2
06:36 -2.3 °C -2.9 °C 1010.7 hPa ESE 1.6 km/h -1607.7 km/h 96 % 0 mm 0 W/m2
06:41 -2.2 °C -2.8 °C 1010.7 hPa SE 3.2 km/h -1607.7 km/h 96 % 0 mm 0 W/m2
06:46 -2.2 °C -2.8 °C 1010.7 hPa SE 3.2 km/h -1607.7 km/h 96 % 0 mm 0 W/m2
06:51 -2.2 °C -2.8 °C 1010.7 hPa SE 3.2 km/h -1607.7 km/h 96 % 0 mm 0 W/m2
06:56 -2.1 °C -2.7 °C 1010.7 hPa SSE 4.8 km/h -1607.7 km/h 96 % 0 mm 0 W/m2
07:01 -2.1 °C -2.7 °C 1010.7 hPa SSE 4.8 km/h -1607.7 km/h 96 % 0 mm 0 W/m2
07:06 -2.1 °C -2.7 °C 1010.7 hPa SSE 4.8 km/h -1607.7 km/h 96 % 0 mm 0 W/m2
07:11 -2.1 °C -2.7 °C 1010.4 hPa SSE 1.6 km/h -1607.7 km/h 96 % 0 mm 0 W/m2
07:16 -2.1 °C -2.7 °C 1010.4 hPa SSE 1.6 km/h -1607.7 km/h 96 % 0 mm 0 W/m2
07:21 -2.1 °C -2.7 °C 1010.4 hPa SSE 1.6 km/h -1607.7 km/h 96 % 0 mm 0 W/m2
07:26 -2 °C -2.6 °C 1010.4 hPa SSE 1.6 km/h -1607.7 km/h 96 % 0 mm 0 W/m2
07:31 -2 °C -2.6 °C 1010.4 hPa SSE 1.6 km/h -1607.7 km/h 96 % 0 mm 0 W/m2
07:36 -2 °C -2.6 °C 1010.4 hPa SSE 1.6 km/h -1607.7 km/h 96 % 0 mm 0 W/m2
07:41 -2 °C -2.6 °C 1010 hPa SE 4.8 km/h -1607.7 km/h 96 % 0 mm 0 W/m2
07:46 -2 °C -2.6 °C 1010 hPa SE 4.8 km/h -1607.7 km/h 96 % 0 mm 0 W/m2
07:51 -2 °C -2.6 °C 1010 hPa SE 4.8 km/h -1607.7 km/h 96 % 0 mm 0 W/m2
07:56 -2.1 °C -2.6 °C 1010 hPa SE 6.4 km/h -1607.7 km/h 96 % 0 mm 0 W/m2
08:01 -2.1 °C -2.6 °C 1010 hPa SE 6.4 km/h -1607.7 km/h 96 % 0 mm 0 W/m2
08:06 -2.1 °C -2.6 °C 1010 hPa SE 6.4 km/h -1607.7 km/h 96 % 0 mm 0 W/m2
08:11 -2 °C -2.6 °C 1010 hPa SSE 9.7 km/h -1607.7 km/h 96 % 0 mm 0 W/m2
08:16 -2 °C -2.6 °C 1010 hPa SSE 9.7 km/h -1607.7 km/h 96 % 0 mm 0 W/m2
08:21 -2 °C -2.6 °C 1010 hPa SSE 9.7 km/h -1607.7 km/h 96 % 0 mm 0 W/m2
08:26 -2.1 °C -2.6 °C 1009.7 hPa SSE 8 km/h -1607.7 km/h 96 % 0 mm 3 W/m2
08:31 -2.1 °C -2.6 °C 1009.7 hPa SSE 8 km/h -1607.7 km/h 96 % 0 mm 3 W/m2
08:36 -2.1 °C -2.6 °C 1009.7 hPa SSE 8 km/h -1607.7 km/h 96 % 0 mm 3 W/m2
08:41 -2 °C -2.4 °C 1009.7 hPa South 4.8 km/h -1607.7 km/h 97 % 0 mm 9 W/m2
08:46 -2 °C -2.4 °C 1009.7 hPa South 4.8 km/h -1607.7 km/h 97 % 0 mm 9 W/m2
08:51 -2 °C -2.4 °C 1009.7 hPa South 4.8 km/h -1607.7 km/h 97 % 0 mm 9 W/m2
08:56 -1.9 °C -2.3 °C 1009.7 hPa South 3.2 km/h -1607.7 km/h 97 % 0 mm 16 W/m2
09:01 -1.9 °C -2.3 °C 1009.7 hPa South 3.2 km/h -1607.7 km/h 97 % 0 mm 16 W/m2
09:06 -1.9 °C -2.3 °C 1009.7 hPa South 3.2 km/h -1607.7 km/h 97 % 0 mm 16 W/m2
09:11 -1.8 °C -2.2 °C 1009.7 hPa South 6.4 km/h -1607.7 km/h 97 % 0 mm 30 W/m2
09:16 -1.8 °C -2.2 °C 1009.7 hPa South 6.4 km/h -1607.7 km/h 97 % 0 mm 30 W/m2
09:21 -1.8 °C -2.2 °C 1009.7 hPa South 6.4 km/h -1607.7 km/h 97 % 0 mm 30 W/m2
09:26 -1.8 °C -2.2 °C 1009.4 hPa ESE 4.8 km/h -1607.7 km/h 97 % 0 mm 30 W/m2
09:31 -1.8 °C -2.2 °C 1009.4 hPa ESE 4.8 km/h -1607.7 km/h 97 % 0 mm 30 W/m2
09:36 -1.8 °C -2.2 °C 1009.4 hPa ESE 4.8 km/h -1607.7 km/h 97 % 0 mm 30 W/m2
09:41 -1.7 °C -2.1 °C 1009.7 hPa SSE 6.4 km/h -1607.7 km/h 97 % 0 mm 30 W/m2
09:46 -1.7 °C -2.1 °C 1009.7 hPa SSE 6.4 km/h -1607.7 km/h 97 % 0 mm 30 W/m2
09:51 -1.7 °C -2.1 °C 1009.7 hPa SSE 6.4 km/h -1607.7 km/h 97 % 0 mm 30 W/m2
09:56 -1.6 °C -2 °C 1009.4 hPa SSW 1.6 km/h -1607.7 km/h 97 % 0 mm 33 W/m2
10:01 -1.6 °C -2 °C 1009.4 hPa SSW 1.6 km/h -1607.7 km/h 97 % 0 mm 33 W/m2
10:06 -1.6 °C -2 °C 1009.4 hPa SSW 1.6 km/h -1607.7 km/h 97 % 0 mm 33 W/m2
10:11 -1.5 °C -1.9 °C 1009.4 hPa SE 4.8 km/h -1607.7 km/h 97 % 0 mm 43 W/m2
10:16 -1.5 °C -1.9 °C 1009.4 hPa SE 4.8 km/h -1607.7 km/h 97 % 0 mm 43 W/m2
10:21 -1.5 °C -1.9 °C 1009.4 hPa SE 4.8 km/h -1607.7 km/h 97 % 0 mm 43 W/m2
10:26 -1.3 °C -1.7 °C 1009.4 hPa SE 4.8 km/h -1607.7 km/h 97 % 0 mm 46 W/m2
10:31 -1.3 °C -1.7 °C 1009.4 hPa SE 4.8 km/h -1607.7 km/h 97 % 0 mm 46 W/m2
10:36 -1.3 °C -1.7 °C 1009.4 hPa SE 4.8 km/h -1607.7 km/h 97 % 0 mm 46 W/m2
10:41 -1.2 °C -1.6 °C 1009.4 hPa SE 6.4 km/h -1607.7 km/h 97 % 0 mm 48 W/m2
10:46 -1.2 °C -1.6 °C 1009.4 hPa SE 6.4 km/h -1607.7 km/h 97 % 0 mm 48 W/m2
10:51 -1.2 °C -1.6 °C 1009.4 hPa SE 6.4 km/h -1607.7 km/h 97 % 0 mm 48 W/m2
10:56 -1.1 °C -1.4 °C 1009.4 hPa SE 8 km/h -1607.7 km/h 97 % 0 mm 49 W/m2
11:01 -1.1 °C -1.4 °C 1009.4 hPa SE 8 km/h -1607.7 km/h 97 % 0 mm 49 W/m2
11:06 -1.1 °C -1.4 °C 1009.4 hPa SE 8 km/h -1607.7 km/h 97 % 0 mm 49 W/m2
11:11 -0.9 °C -1.3 °C 1009.4 hPa SE 9.7 km/h -1607.7 km/h 97 % 0 mm 56 W/m2
11:16 -0.9 °C -1.3 °C 1009.4 hPa SE 9.7 km/h -1607.7 km/h 97 % 0 mm 56 W/m2
11:21 -0.9 °C -1.3 °C 1009.4 hPa SE 9.7 km/h -1607.7 km/h 97 % 0 mm 56 W/m2
11:26 -0.7 °C -1.1 °C 1009.4 hPa SSE 8 km/h -1607.7 km/h 97 % 0 mm 58 W/m2
11:31 -0.7 °C -1.1 °C 1009.4 hPa SSE 8 km/h -1607.7 km/h 97 % 0 mm 58 W/m2
11:36 -0.7 °C -1.1 °C 1009.4 hPa SSE 8 km/h -1607.7 km/h 97 % 0 mm 58 W/m2
11:41 -0.4 °C -0.9 °C 1009 hPa South 8 km/h -1607.7 km/h 97 % 0 mm 67 W/m2
11:46 -0.4 °C -0.9 °C 1009 hPa South 8 km/h -1607.7 km/h 97 % 0 mm 67 W/m2
11:51 -0.4 °C -0.9 °C 1009 hPa South 8 km/h -1607.7 km/h 97 % 0 mm 67 W/m2
11:56 -0.2 °C -0.6 °C 1008.7 hPa SSE 4.8 km/h -1607.7 km/h 97 % 0 mm 66 W/m2
12:01 -0.2 °C -0.6 °C 1008.7 hPa SSE 4.8 km/h -1607.7 km/h 97 % 0 mm 66 W/m2
12:06 -0.2 °C -0.6 °C 1008.7 hPa SSE 4.8 km/h -1607.7 km/h 97 % 0 mm 66 W/m2
12:11 0.1 °C -0.4 °C 1008.7 hPa South 3.2 km/h -1607.7 km/h 97 % 0 mm 63 W/m2
12:16 0.1 °C -0.4 °C 1008.7 hPa South 3.2 km/h -1607.7 km/h 97 % 0 mm 63 W/m2
12:21 0.1 °C -0.4 °C 1008.7 hPa South 3.2 km/h -1607.7 km/h 97 % 0 mm 63 W/m2
12:26 0.2 °C -0.2 °C 1008.7 hPa South 3.2 km/h -1607.7 km/h 97 % 0 mm 49 W/m2
12:31 0.2 °C -0.2 °C 1008.7 hPa South 3.2 km/h -1607.7 km/h 97 % 0 mm 49 W/m2
12:36 0.2 °C -0.2 °C 1008.7 hPa South 3.2 km/h -1607.7 km/h 97 % 0 mm 49 W/m2
12:41 0.5 °C 0.1 °C 1008.7 hPa South 1.6 km/h -1607.7 km/h 97 % 0 mm 61 W/m2
12:46 0.5 °C 0.1 °C 1008.7 hPa South 1.6 km/h -1607.7 km/h 97 % 0 mm 61 W/m2
12:51 0.5 °C 0.1 °C 1008.7 hPa South 1.6 km/h -1607.7 km/h 97 % 0 mm 61 W/m2
12:56 0.8 °C 0.3 °C 1008.7 hPa SSE 3.2 km/h -1607.7 km/h 97 % 0 mm 67 W/m2
13:01 0.8 °C 0.3 °C 1008.7 hPa SSE 3.2 km/h -1607.7 km/h 97 % 0 mm 67 W/m2
13:06 0.8 °C 0.3 °C 1008.7 hPa SSE 3.2 km/h -1607.7 km/h 97 % 0 mm 67 W/m2
13:11 1.2 °C 0.7 °C 1008.7 hPa SSE 9.7 km/h -1607.7 km/h 97 % 0 mm 65 W/m2
13:16 1.2 °C 0.7 °C 1008.7 hPa SSE 9.7 km/h -1607.7 km/h 97 % 0 mm 65 W/m2
13:21 1.2 °C 0.7 °C 1008.7 hPa SSE 9.7 km/h -1607.7 km/h 97 % 0 mm 65 W/m2
13:26 1.4 °C 0.9 °C 1008.4 hPa SE 8 km/h -1607.7 km/h 97 % 0 mm 50 W/m2
13:31 1.4 °C 0.9 °C 1008.4 hPa SE 8 km/h -1607.7 km/h 97 % 0 mm 50 W/m2
13:36 1.4 °C 0.9 °C 1008.4 hPa SE 8 km/h -1607.7 km/h 97 % 0 mm 50 W/m2
13:41 1.5 °C 0.9 °C 1008 hPa South 11.3 km/h -1607.7 km/h 96 % 0 mm 59 W/m2
13:46 1.5 °C 0.9 °C 1008 hPa South 11.3 km/h -1607.7 km/h 96 % 0 mm 59 W/m2
13:51 1.5 °C 0.9 °C 1008 hPa South 11.3 km/h -1607.7 km/h 96 % 0 mm 59 W/m2
13:56 1.6 °C 0.8 °C 1008 hPa South 9.7 km/h -1607.7 km/h 95 % 0 mm 55 W/m2
14:01 1.6 °C 0.8 °C 1008 hPa South 9.7 km/h -1607.7 km/h 95 % 0 mm 55 W/m2
14:06 1.6 °C 0.8 °C 1008 hPa South 9.7 km/h -1607.7 km/h 95 % 0 mm 55 W/m2
14:11 1.7 °C 0.9 °C 1008 hPa South 11.3 km/h -1607.7 km/h 95 % 0 mm 67 W/m2
14:16 1.7 °C 0.9 °C 1008 hPa South 11.3 km/h -1607.7 km/h 95 % 0 mm 67 W/m2
14:21 1.7 °C 0.9 °C 1008 hPa South 11.3 km/h -1607.7 km/h 95 % 0 mm 67 W/m2
14:26 1.8 °C 0.9 °C 1008 hPa SSE 9.7 km/h -1607.7 km/h 94 % 0 mm 72 W/m2
14:31 1.8 °C 0.9 °C 1008 hPa SSE 9.7 km/h -1607.7 km/h 94 % 0 mm 72 W/m2
14:36 1.8 °C 0.9 °C 1008 hPa SSE 9.7 km/h -1607.7 km/h 94 % 0 mm 72 W/m2
14:41 2 °C 1.1 °C 1008.4 hPa SSE 8 km/h -1607.7 km/h 94 % 0 mm 51 W/m2
14:46 2 °C 1.1 °C 1008.4 hPa SSE 8 km/h -1607.7 km/h 94 % 0 mm 51 W/m2
14:51 2 °C 1.1 °C 1008.4 hPa SSE 8 km/h -1607.7 km/h 94 % 0 mm 51 W/m2
14:56 2.1 °C 1.1 °C 1008 hPa SSE 6.4 km/h -1607.7 km/h 93 % 0 mm 32 W/m2
15:01 2.1 °C 1.1 °C 1008 hPa SSE 6.4 km/h -1607.7 km/h 93 % 0 mm 32 W/m2
15:06 2.1 °C 1.1 °C 1008 hPa SSE 6.4 km/h -1607.7 km/h 93 % 0 mm 32 W/m2
15:11 2.2 °C 1.2 °C 1008.4 hPa SSE 8 km/h -1607.7 km/h 93 % 0 mm 39 W/m2
15:16 2.2 °C 1.2 °C 1008.4 hPa SSE 8 km/h -1607.7 km/h 93 % 0 mm 39 W/m2
15:21 2.2 °C 1.2 °C 1008.4 hPa SSE 8 km/h -1607.7 km/h 93 % 0 mm 39 W/m2
15:26 2.2 °C 1.2 °C 1008.4 hPa SE 6.4 km/h -1607.7 km/h 93 % 0 mm 26 W/m2
15:31 2.2 °C 1.2 °C 1008.4 hPa SE 6.4 km/h -1607.7 km/h 93 % 0 mm 26 W/m2
15:36 2.2 °C 1.2 °C 1008.4 hPa SE 6.4 km/h -1607.7 km/h 93 % 0 mm 26 W/m2
15:41 2.3 °C 1.3 °C 1008.7 hPa ESE 6.4 km/h -1607.7 km/h 93 % 0 mm 16 W/m2
15:46 2.3 °C 1.3 °C 1008.7 hPa ESE 6.4 km/h -1607.7 km/h 93 % 0 mm 16 W/m2
15:51 2.3 °C 1.3 °C 1008.7 hPa ESE 6.4 km/h -1607.7 km/h 93 % 0 mm 16 W/m2
15:56 2.4 °C 1.4 °C 1008.4 hPa ESE 8 km/h -1607.7 km/h 93 % 0 mm 11 W/m2
16:01 2.4 °C 1.4 °C 1008.4 hPa ESE 8 km/h -1607.7 km/h 93 % 0 mm 11 W/m2
16:06 2.4 °C 1.4 °C 1008.4 hPa ESE 8 km/h -1607.7 km/h 93 % 0 mm 11 W/m2
16:11 2.3 °C 1.3 °C 1008.7 hPa ESE 4.8 km/h -1607.7 km/h 93 % 0 mm 8 W/m2
16:16 2.3 °C 1.3 °C 1008.7 hPa ESE 4.8 km/h -1607.7 km/h 93 % 0 mm 8 W/m2
16:21 2.3 °C 1.3 °C 1008.7 hPa ESE 4.8 km/h -1607.7 km/h 93 % 0 mm 8 W/m2
16:26 2.3 °C 1.3 °C 1008.7 hPa ESE 8 km/h -1607.7 km/h 93 % 0 mm 5 W/m2
16:31 2.3 °C 1.3 °C 1008.7 hPa ESE 8 km/h -1607.7 km/h 93 % 0 mm 5 W/m2
16:36 2.3 °C 1.3 °C 1008.7 hPa ESE 8 km/h -1607.7 km/h 93 % 0 mm 5 W/m2
16:41 2.3 °C 1.4 °C 1008.7 hPa ESE 8 km/h -1607.7 km/h 94 % 0 mm 0 W/m2
16:46 2.3 °C 1.4 °C 1008.7 hPa ESE 8 km/h -1607.7 km/h 94 % 0 mm 0 W/m2
16:51 2.3 °C 1.4 °C 1008.7 hPa ESE 8 km/h -1607.7 km/h 94 % 0 mm 0 W/m2
16:56 2.4 °C 1.5 °C 1008.7 hPa ESE 8 km/h -1607.7 km/h 94 % 0 mm 0 W/m2
17:01 2.4 °C 1.5 °C 1008.7 hPa ESE 8 km/h -1607.7 km/h 94 % 0 mm 0 W/m2
17:06 2.4 °C 1.5 °C 1008.7 hPa ESE 8 km/h -1607.7 km/h 94 % 0 mm 0 W/m2
17:11 2.4 °C 1.6 °C 1008.4 hPa SE 9.7 km/h -1607.7 km/h 94 % 0 mm 0 W/m2
17:16 2.4 °C 1.6 °C 1008.4 hPa SE 9.7 km/h -1607.7 km/h 94 % 0 mm 0 W/m2
17:21 2.4 °C 1.6 °C 1008.4 hPa SE 9.7 km/h -1607.7 km/h 94 % 0 mm 0 W/m2
17:26 2.5 °C 1.6 °C 1008.7 hPa SE 9.7 km/h -1607.7 km/h 94 % 0 mm 0 W/m2
17:31 2.5 °C 1.6 °C 1008.7 hPa SE 9.7 km/h -1607.7 km/h 94 % 0 mm 0 W/m2
17:36 2.5 °C 1.6 °C 1008.7 hPa SE 9.7 km/h -1607.7 km/h 94 % 0 mm 0 W/m2
17:41 2.6 °C 1.7 °C 1009 hPa SE 12.9 km/h -1607.7 km/h 94 % 0 mm 0 W/m2
17:46 2.6 °C 1.7 °C 1009 hPa SE 12.9 km/h -1607.7 km/h 94 % 0 mm 0 W/m2
17:51 2.6 °C 1.7 °C 1009 hPa SE 12.9 km/h -1607.7 km/h 94 % 0 mm 0 W/m2
17:56 2.5 °C 1.5 °C 1009.4 hPa SE 11.3 km/h -1607.7 km/h 93 % 0 mm 0 W/m2
18:01 2.5 °C 1.5 °C 1009.4 hPa SE 11.3 km/h -1607.7 km/h 93 % 0 mm 0 W/m2
18:06 2.5 °C 1.5 °C 1009.4 hPa SE 11.3 km/h -1607.7 km/h 93 % 0 mm 0 W/m2
18:11 2.4 °C 1.4 °C 1009 hPa SE 9.7 km/h -1607.7 km/h 93 % 0 mm 0 W/m2
18:16 2.4 °C 1.4 °C 1009 hPa SE 9.7 km/h -1607.7 km/h 93 % 0 mm 0 W/m2
18:21 2.4 °C 1.4 °C 1009 hPa SE 9.7 km/h -1607.7 km/h 93 % 0 mm 0 W/m2
18:26 2.3 °C 1.3 °C 1009 hPa SE 9.7 km/h -1607.7 km/h 93 % 0 mm 0 W/m2
18:31 2.3 °C 1.3 °C 1009 hPa SE 9.7 km/h -1607.7 km/h 93 % 0 mm 0 W/m2
18:36 2.3 °C 1.3 °C 1009 hPa SE 9.7 km/h -1607.7 km/h 93 % 0 mm 0 W/m2
18:41 2.2 °C 1.2 °C 1009 hPa SE 9.7 km/h -1607.7 km/h 93 % 0 mm 0 W/m2
18:46 2.2 °C 1.2 °C 1009 hPa SE 9.7 km/h -1607.7 km/h 93 % 0 mm 0 W/m2
18:51 2.2 °C 1.2 °C 1009 hPa SE 9.7 km/h -1607.7 km/h 93 % 0 mm 0 W/m2
18:56 2.2 °C 1.3 °C 1009 hPa SE 8 km/h -1607.7 km/h 94 % 0 mm 0 W/m2
19:01 2.2 °C 1.3 °C 1009 hPa SE 8 km/h -1607.7 km/h 94 % 0 mm 0 W/m2
19:06 2.2 °C 1.3 °C 1009 hPa SE 8 km/h -1607.7 km/h 94 % 0 mm 0 W/m2
19:11 2.1 °C 1.2 °C 1009.4 hPa SE 9.7 km/h -1607.7 km/h 94 % 0 mm 0 W/m2
19:16 2.1 °C 1.2 °C 1009.4 hPa SE 9.7 km/h -1607.7 km/h 94 % 0 mm 0 W/m2
19:21 2.1 °C 1.2 °C 1009.4 hPa SE 9.7 km/h -1607.7 km/h 94 % 0 mm 0 W/m2
19:26 2.1 °C 1.2 °C 1009 hPa SE 11.3 km/h -1607.7 km/h 94 % 0 mm 0 W/m2
19:31 2.1 °C 1.2 °C 1009 hPa SE 11.3 km/h -1607.7 km/h 94 % 0 mm 0 W/m2
19:36 2.1 °C 1.2 °C 1009 hPa SE 11.3 km/h -1607.7 km/h 94 % 0 mm 0 W/m2
19:41 2.1 °C 1.2 °C 1009 hPa SE 8 km/h -1607.7 km/h 94 % 0 mm 0 W/m2
19:46 2.1 °C 1.2 °C 1009 hPa SE 8 km/h -1607.7 km/h 94 % 0 mm 0 W/m2
19:51 2.1 °C 1.2 °C 1009 hPa SE 8 km/h -1607.7 km/h 94 % 0 mm 0 W/m2
19:56 2.1 °C 1.3 °C 1009 hPa SE 9.7 km/h -1607.7 km/h 95 % 0 mm 0 W/m2
20:01 2.1 °C 1.3 °C 1009 hPa SE 9.7 km/h -1607.7 km/h 95 % 0 mm 0 W/m2
20:06 2.1 °C 1.3 °C 1009 hPa SE 9.7 km/h -1607.7 km/h 95 % 0 mm 0 W/m2
20:11 2.1 °C 1.3 °C 1009 hPa SE 9.7 km/h -1607.7 km/h 95 % 0 mm 0 W/m2
20:16 2.1 °C 1.3 °C 1009 hPa SE 9.7 km/h -1607.7 km/h 95 % 0 mm 0 W/m2
20:21 2.1 °C 1.3 °C 1009 hPa SE 9.7 km/h -1607.7 km/h 95 % 0 mm 0 W/m2
20:26 2.1 °C 1.3 °C 1008.7 hPa SE 8 km/h -1607.7 km/h 95 % 0 mm 0 W/m2
20:31 2.1 °C 1.3 °C 1008.7 hPa SE 8 km/h -1607.7 km/h 95 % 0 mm 0 W/m2
20:36 2.1 °C 1.3 °C 1008.7 hPa SE 8 km/h -1607.7 km/h 95 % 0 mm 0 W/m2
20:41 2.1 °C 1.3 °C 1008.7 hPa SE 6.4 km/h -1607.7 km/h 95 % 0.25 mm 0 W/m2
20:46 2.1 °C 1.3 °C 1008.7 hPa SE 6.4 km/h -1607.7 km/h 95 % 0.25 mm 0 W/m2
20:51 2.1 °C 1.3 °C 1008.7 hPa SE 6.4 km/h -1607.7 km/h 95 % 0.25 mm 0 W/m2
20:56 2.1 °C 1.5 °C 1008.7 hPa SE 6.4 km/h -1607.7 km/h 96 % 0.25 mm 0 W/m2
21:01 2.1 °C 1.5 °C 1008.7 hPa SE 6.4 km/h -1607.7 km/h 96 % 0.25 mm 0 W/m2
21:06 2.1 °C 1.5 °C 1008.7 hPa SE 6.4 km/h -1607.7 km/h 96 % 0.25 mm 0 W/m2
21:11 2.1 °C 1.5 °C 1008.7 hPa ESE 4.8 km/h -1607.7 km/h 96 % 0.25 mm 0 W/m2
21:16 2.1 °C 1.5 °C 1008.7 hPa ESE 4.8 km/h -1607.7 km/h 96 % 0.25 mm 0 W/m2
21:26 2.1 °C 1.5 °C 1008.7 hPa SE 4.8 km/h -1607.7 km/h 96 % 0.51 mm 0 W/m2
21:31 2.1 °C 1.5 °C 1008.7 hPa SE 4.8 km/h -1607.7 km/h 96 % 0.51 mm 0 W/m2
21:36 2.1 °C 1.5 °C 1008.7 hPa SE 4.8 km/h -1607.7 km/h 96 % 0.51 mm 0 W/m2
21:41 2.1 °C 1.6 °C 1008.4 hPa SE 6.4 km/h -1607.7 km/h 96 % 0.51 mm 0 W/m2
21:46 2.1 °C 1.6 °C 1008.4 hPa SE 6.4 km/h -1607.7 km/h 96 % 0.51 mm 0 W/m2
21:51 2.1 °C 1.6 °C 1008.4 hPa SE 6.4 km/h -1607.7 km/h 96 % 0.51 mm 0 W/m2
21:56 2.1 °C 1.6 °C 1008.4 hPa SE 8 km/h -1607.7 km/h 96 % 0.51 mm 0 W/m2
22:01 2.1 °C 1.6 °C 1008.4 hPa SE 8 km/h -1607.7 km/h 96 % 0.51 mm 0 W/m2
22:06 2.1 °C 1.6 °C 1008.4 hPa SE 8 km/h -1607.7 km/h 96 % 0.51 mm 0 W/m2
22:11 2.1 °C 1.6 °C 1008.4 hPa SE 6.4 km/h -1607.7 km/h 96 % 0.51 mm 0 W/m2
22:16 2.1 °C 1.6 °C 1008.4 hPa SE 6.4 km/h -1607.7 km/h 96 % 0.51 mm 0 W/m2
22:21 2.1 °C 1.6 °C 1008.4 hPa SE 6.4 km/h -1607.7 km/h 96 % 0.51 mm 0 W/m2
22:26 2.1 °C 1.6 °C 1008 hPa SE 6.4 km/h -1607.7 km/h 96 % 0.25 mm 0 W/m2
22:31 2.1 °C 1.6 °C 1008 hPa SE 6.4 km/h -1607.7 km/h 96 % 0.25 mm 0 W/m2
22:36 2.1 °C 1.6 °C 1008 hPa SE 6.4 km/h -1607.7 km/h 96 % 0.25 mm 0 W/m2
22:41 2.2 °C 1.7 °C 1008 hPa SE 6.4 km/h -1607.7 km/h 97 % 0 mm 0 W/m2
22:46 2.2 °C 1.7 °C 1008 hPa SE 6.4 km/h -1607.7 km/h 97 % 0 mm 0 W/m2
22:51 2.2 °C 1.7 °C 1008 hPa SE 6.4 km/h -1607.7 km/h 97 % 0 mm 0 W/m2
22:56 2.2 °C 1.8 °C 1008 hPa SE 3.2 km/h -1607.7 km/h 97 % 0 mm 0 W/m2
23:01 2.2 °C 1.8 °C 1008 hPa SE 3.2 km/h -1607.7 km/h 97 % 0 mm 0 W/m2
23:06 2.2 °C 1.8 °C 1008 hPa SE 3.2 km/h -1607.7 km/h 97 % 0 mm 0 W/m2
23:11 2.3 °C 1.8 °C 1008 hPa ESE 3.2 km/h -1607.7 km/h 97 % 0.25 mm 0 W/m2
23:16 2.3 °C 1.8 °C 1008 hPa ESE 3.2 km/h -1607.7 km/h 97 % 0.25 mm 0 W/m2
23:21 2.3 °C 1.8 °C 1008 hPa ESE 3.2 km/h -1607.7 km/h 97 % 0.25 mm 0 W/m2
23:26 2.3 °C 1.8 °C 1008 hPa ESE 1.6 km/h -1607.7 km/h 97 % 0.25 mm 0 W/m2
23:31 2.3 °C 1.8 °C 1008 hPa ESE 1.6 km/h -1607.7 km/h 97 % 0.25 mm 0 W/m2
23:36 2.3 °C 1.8 °C 1008 hPa ESE 1.6 km/h -1607.7 km/h 97 % 0.25 mm 0 W/m2
23:41 2.3 °C 1.8 °C 1007.7 hPa East 1.6 km/h -1607.7 km/h 97 % 0.25 mm 0 W/m2
23:46 2.3 °C 1.8 °C 1007.7 hPa East 1.6 km/h -1607.7 km/h 97 % 0.25 mm 0 W/m2
23:51 2.3 °C 1.8 °C 1007.7 hPa East 1.6 km/h -1607.7 km/h 97 % 0.25 mm 0 W/m2
23:56 2.3 °C 1.9 °C 1007.7 hPa Calm   -1607.7 km/h 97 % 0.25 mm 0 W/m2
Delerius-Weather
Compliments of Weather Underground - 2.25 mb

Data updates at regular intervals.